Location: Newark
(40.7119°N, 74.0097°W)
Time: 15:09:43
(UTC+00:00)

ISS - Pass Details

Date: 28 June 2021
Orbit: 419 x 421 km, 51.6° (Epoch: 02 August)

Event Time Altitude Azimuth Distance (km) Brightness Sun altitude
Exits shadow 07:42:27 25° 169° (S) 889 -2.5 -15.7°
Maximum altitude 07:43:27 30° 135° (SE) 776 -2.5 -15.5°
Drops below altitude 10° 07:46:27 10° 72° (ENE) 1,499 -0.1 -15.2°
Sets 07:48:42 0° 62° (ENE) 2,367 1.4 -14.9°
